This demonstration page uses our WeatherBlox Daily Observations layout. Learn more.

Left ArrowRight Arrow

38.88101, -77.10428

Hourly Observations for July 3, 2021

Temp ( °F °C ) Dew Point ( °F °C ) Humidity (%) Winds ( mph kmh ) Pressure ( in mb ) Visibility ( mi km ) Precip ( " mm )
12:52 am 00:52 Mostly Cloudy 69 20.6 52 11.1 55 55 NW 12 19 29.81 1010 10 16 N/A
1:52 am 01:52 Mostly Cloudy 68 20 52 11.1 57 57 NW 12 19 29.81 1009 10 16 N/A
2:52 am 02:52 Partly Cloudy 67 19.4 53 11.7 61 61 NW 13 20 29.79 1009 10 16 N/A
3:52 am 03:52 Partly Cloudy 66 18.9 53 11.7 63 63 NW 12 19 29.80 1009 10 16 N/A
4:52 am 04:52 Mostly Clear 65 18.3 53 11.7 66 66 NW 10 17 29.80 1009 10 16 N/A
5:52 am 05:52 Mostly Sunny 63 17.2 54 12.2 73 73 NW 8 13 29.80 1009 10 16 N/A
6:52 am 06:52 Mostly Sunny 65 18.3 54 12.2 68 68 NNW 9 15 29.83 1010 10 16 N/A
7:52 am 07:52 Mostly Sunny 67 19.4 55 12.8 66 66 NNW 13 20 29.83 1010 10 16 N/A
8:52 am 08:52 Partly Cloudy 70 21.1 56 13.3 61 61 NNW 10 17 29.85 1011 10 16 N/A
9:52 am 09:52 Mostly Cloudy 72 22.2 57 13.9 59 59 NW 7 11 29.85 1011 10 16 N/A
10:52 am 10:52 Mostly Cloudy 74 23.3 57 13.9 56 56 NW 14 22 29.84 1011 10 16 N/A
11:52 am 11:52 Mostly Cloudy 74 23.3 57 13.9 56 56 NNW 10 17 29.84 1010 10 16 N/A
12:52 pm 12:52 Mostly Cloudy 76 24.4 57 13.9 52 52 NNW 13 20 29.83 1010 10 16 N/A
1:52 pm 13:52 Mostly Cloudy 79 26.1 57 13.9 47 47 NW 14 22 29.80 1009 10 16 N/A
2:52 pm 14:52 Mostly Cloudy 80 26.7 57 13.9 45 45 WNW 13 20 29.79 1009 10 16 N/A
3:52 pm 15:52 Mostly Cloudy 80 26.7 57 13.9 45 45 NNW 13 20 29.78 1009 10 16 N/A
4:52 pm 16:52 Mostly Cloudy 81 27.2 56 13.3 42 42 NNW 14 22 29.78 1009 10 16 N/A
5:52 pm 17:52 Mostly Cloudy 80 26.7 55 12.8 42 42 WNW 16 26 29.79 1009 10 16 N/A
6:52 pm 18:52 Mostly Cloudy 78 25.6 54 12.2 43 43 WNW 12 19 29.80 1009 10 16 N/A
7:52 pm 19:52 Mostly Cloudy 77 25 56 13.3 48 48 NNW 9 15 29.82 1010 10 16 N/A
8:52 pm 20:52 Cloudy with Light Rain 71 21.7 61 16.1 71 71 NNW 14 22 29.86 1011 10 16 0.00 0.00
9:52 pm 21:52 Cloudy 70 21.1 61 16.1 73 73 NNE 14 22 29.89 1012 10 16 0.00 0.00
10:52 pm 22:52 Cloudy 69 20.6 61 16.1 76 76 N N/A 29.89 1012 10 16 N/A
11:52 pm 23:52 Partly Cloudy 69 20.6 61 16.1 76 76 N N/A 29.90 1013 10 16 N/A

Powered by AerisWeather